Weather History for LFPG - August, 2013

Change the Weather History Date:

Saturday, August 10, 2013

  Actual Average Record
Temperature  
Mean Temperature 64 °F -  
Max Temperature 73 °F 73 °F 100 °F (2003)
Min Temperature 55 °F 55 °F 50 °F (2011)
Degree Days  
Heating Degree Days 1    
Growing Degree Days 14 (Base 50)    
Moisture  
Dew Point 51 °F    
Average Humidity 65    
Maximum Humidity 88    
Minimum Humidity 38    
Precipitation  
Precipitation 0.00 in - - ()
Sea Level Pressure  
Sea Level Pressure 30.20 in    
Wind  
Wind Speed 7 mph ()    
Max Wind Speed 12 mph    
Max Gust Speed -    
Visibility 6.2 miles    
Events      
Averages and records for this station are not official NWS values.
T = Trace of Precipitation, MM = Missing Value Source: Averaged Metar Reports

Daily Weather History Graph

Daily Weather History Graph

Search for Another Location

Airport or City:

Trip Planner

Search our weather history database for the weather conditions in past years. The results will help you decide how hot, cold, wet, or windy it might be!

Date:

Astronomy

Aug. 10, 2013 Rise Set
Actual Time 6:35 AM CEST 9:14 PM CEST
Civil Twilight 5:59 AM CEST 9:50 PM CEST
Nautical Twilight 5:13 AM CEST 10:35 PM CEST
Astronomical Twilight 4:19 AM CEST 11:29 PM CEST
Moon 10:30 AM CEST (8/10) 10:20 PM CEST (8/10)
Length of Visible Light 15h 50m
Length of Day
14h 39m
Waxing Crescent, 12% of the Moon is Illuminated
Aug 10
Waxing Crescent
Aug 14
First Quarter
Aug 21
Full
Aug 28
Last Quarter
Sep 5
New

Hourly Weather History & Observations

Time (CEST) Temp. Dew Point Humidity Pressure Visibility Wind Dir Wind Speed Gust Speed Precip Events Conditions
12:00 AM 60.8 °F 53.6 °F 77% 30.21 in - NW 6.9 mph - N/A   Clear
12:30 AM 60.8 °F 51.8 °F 72% 30.21 in 6.2 mi NW 6.9 mph - N/A   Scattered Clouds
1:00 AM 60.8 °F 51.8 °F 72% 30.21 in 6.2 mi West 3.5 mph - N/A   Scattered Clouds
1:30 AM 59.0 °F 51.8 °F 77% 30.21 in 6.2 mi NW 5.8 mph - N/A   Partly Cloudy
2:00 AM 59.0 °F 51.8 °F 77% 30.21 in 6.2 mi West 5.8 mph - N/A   Partly Cloudy
2:30 AM 59.0 °F 50.0 °F 72% 30.21 in 6.2 mi West 3.5 mph - N/A   Partly Cloudy
3:00 AM 59.0 °F 50.0 °F 72% 30.21 in - WSW 8.1 mph - N/A   Clear
3:30 AM 59.0 °F 50.0 °F 72% 30.18 in - West 4.6 mph - N/A   Clear
4:00 AM 57.2 °F 50.0 °F 77% 30.18 in - WSW 5.8 mph - N/A   Clear
4:30 AM 57.2 °F 50.0 °F 77% 30.18 in - WSW 6.9 mph - N/A   Clear
5:00 AM 57.2 °F 50.0 °F 77% 30.18 in - WSW 8.1 mph - N/A   Clear
5:30 AM 57.2 °F 51.8 °F 82% 30.18 in - WSW 6.9 mph - N/A   Clear
6:00 AM 57.2 °F 51.8 °F 82% 30.18 in 6.2 mi WSW 6.9 mph - N/A   Partly Cloudy
6:30 AM 57.2 °F 51.8 °F 82% 30.18 in 6.2 mi WSW 8.1 mph - N/A   Partly Cloudy
7:00 AM 55.4 °F 51.8 °F 88% 30.18 in 6.2 mi WSW 6.9 mph - N/A   Partly Cloudy
7:30 AM 55.4 °F 51.8 °F 88% 30.18 in 6.2 mi WSW 6.9 mph - N/A   Scattered Clouds
8:00 AM 57.2 °F 51.8 °F 82% 30.18 in 6.2 mi WSW 6.9 mph - N/A   Scattered Clouds
8:30 AM 57.2 °F 53.6 °F 88% 30.21 in 6.2 mi West 6.9 mph - N/A   Scattered Clouds
9:00 AM 59.0 °F 53.6 °F 82% 30.21 in 6.2 mi West 10.4 mph - N/A   Scattered Clouds
9:30 AM 60.8 °F 53.6 °F 77% 30.21 in 6.2 mi West 8.1 mph - N/A   Scattered Clouds
10:00 AM 60.8 °F 53.6 °F 77% 30.21 in 6.2 mi West 8.1 mph - N/A   Mostly Cloudy
10:30 AM 60.8 °F 55.4 °F 82% 30.21 in 6.2 mi West 8.1 mph - N/A   Mostly Cloudy
11:00 AM 62.6 °F 55.4 °F 77% 30.21 in 6.2 mi West 5.8 mph - N/A   Mostly Cloudy
11:30 AM 64.4 °F 55.4 °F 73% 30.21 in 6.2 mi West 8.1 mph - N/A   Mostly Cloudy
12:00 PM 66.2 °F 55.4 °F 68% 30.21 in 6.2 mi WNW 6.9 mph - N/A   Mostly Cloudy
12:30 PM 66.2 °F 55.4 °F 68% 30.21 in 6.2 mi WNW 5.8 mph - N/A   Scattered Clouds
1:00 PM 69.8 °F 53.6 °F 56% 30.21 in 6.2 mi WNW 6.9 mph - N/A   Scattered Clouds
1:30 PM 69.8 °F 53.6 °F 56% 30.21 in 6.2 mi West 6.9 mph - N/A   Scattered Clouds
2:00 PM 71.6 °F 51.8 °F 50% 30.21 in 6.2 mi West 9.2 mph - N/A   Scattered Clouds
2:30 PM 69.8 °F 51.8 °F 53% 30.21 in 6.2 mi West 6.9 mph - N/A   Scattered Clouds
3:00 PM 73.4 °F 51.8 °F 47% 30.21 in 6.2 mi West 8.1 mph - N/A   Scattered Clouds
3:30 PM 69.8 °F 50.0 °F 49% 30.21 in 6.2 mi NW 10.4 mph - N/A   Scattered Clouds
4:00 PM 69.8 °F 50.0 °F 49% 30.21 in 6.2 mi WNW 11.5 mph - N/A   Scattered Clouds
4:30 PM 71.6 °F 50.0 °F 46% 30.18 in 6.2 mi WNW 11.5 mph - N/A   Scattered Clouds
5:00 PM 73.4 °F 48.2 °F 41% 30.18 in - WNW 9.2 mph - N/A   Clear
5:30 PM 71.6 °F 48.2 °F 43% 30.18 in - WNW 9.2 mph - N/A   Clear
6:00 PM 73.4 °F 46.4 °F 38% 30.18 in - WNW 9.2 mph - N/A   Clear
6:30 PM 71.6 °F 46.4 °F 41% 30.18 in - WNW 10.4 mph - N/A   Clear
7:00 PM 71.6 °F 46.4 °F 41% 30.18 in - WNW 10.4 mph - N/A   Clear
7:30 PM 71.6 °F 46.4 °F 41% 30.18 in - WNW 10.4 mph - N/A   Clear
8:00 PM 69.8 °F 46.4 °F 43% 30.18 in - WNW 10.4 mph - N/A   Clear
8:30 PM 68.0 °F 46.4 °F 46% 30.18 in - NW 9.2 mph - N/A   Clear
9:00 PM 66.2 °F 48.2 °F 52% 30.18 in - NW 6.9 mph - N/A   Clear
9:30 PM 64.4 °F 48.2 °F 56% 30.21 in - NW 6.9 mph - N/A   Clear
10:00 PM 62.6 °F 46.4 °F 55% 30.21 in - NW 5.8 mph - N/A   Clear
10:30 PM 60.8 °F 48.2 °F 63% 30.21 in - NW 4.6 mph - N/A   Clear
11:00 PM 60.8 °F 46.4 °F 59% 30.21 in - NW 5.8 mph - N/A   Clear
11:30 PM 59.0 °F 48.2 °F 67% 30.21 in - North 3.5 mph - N/A   Clear